When you browse on this site, cookies collect data to enhance your experience and personalize the content and advertising you see.
Visit our Privacy Policy to learn more. By continuing to use the site, you agree to this use of cookies and data.
  • In Romania
  • List of Countries
  • For 7 days
  • Water Temperature
  • Satellite Maps
  • Weather Map
  • Weather Widgets
  • user-avatar
    Login

    Hourly Weather Lasanen

    Today, 20 May, Monday

    Time Temperature Precipitation Wind Pressure Humidity
    00:00 +10°C° 0 mm 3 mps 763 mmHg 63%
    01:00 +10°C° 0 mm 3 mps 763 mmHg 65%
    02:00 +10°C° 0 mm 4 mps 763 mmHg 66%
    03:00 +10°C° 0 mm 4 mps 763 mmHg 65%
    04:00 +10°C° 0 mm 4 mps 763 mmHg 64%
    05:00 +10°C° 0 mm 4 mps 763 mmHg 63%
    06:00 +11°C° 0 mm 4 mps 763 mmHg 60%
    07:00 +13°C° 0 mm 4 mps 763 mmHg 57%
    08:00 +14°C° 0 mm 4 mps 763 mmHg 52%
    09:00 +14°C° 0 mm 4 mps 763 mmHg 51%
    10:00 +15°C° 0 mm 4 mps 763 mmHg 50%
    11:00 +17°C° 0 mm 4 mps 762 mmHg 48%
    12:00 +17°C° 0 mm 4 mps 762 mmHg 48%
    13:00 +17°C° 0 mm 4 mps 762 mmHg 48%
    14:00 +17°C° 0 mm 4 mps 762 mmHg 46%
    15:00 +17°C° 0 mm 4 mps 762 mmHg 47%
    16:00 +17°C° 0 mm 4 mps 761 mmHg 48%
    17:00 +17°C° 0 mm 4 mps 761 mmHg 48%
    18:00 +15°C° 0.2 mm 4 mps 761 mmHg 54%
    19:00 +14°C° 0.2 mm 4 mps 761 mmHg 60%
    20:00 +13°C° 0.2 mm 3 mps 760 mmHg 66%
    21:00 +12°C° 0.2 mm 3 mps 760 mmHg 70%
    22:00 +11°C° 0.2 mm 3 mps 760 mmHg 74%
    23:00 +11°C° 0.2 mm 3 mps 760 mmHg 78%

    Tomorrow, 21 May, Tuesday

    Time Temperature Precipitation Wind Pressure Humidity
    00:00 +11°C° 0.4 mm 3 mps 760 mmHg 81%
    01:00 +10°C° 0.4 mm 2 mps 760 mmHg 85%
    02:00 +10°C° 0.4 mm 2 mps 759 mmHg 89%
    03:00 +12°C° 0.5 mm 2 mps 759 mmHg 91%
    04:00 +12°C° 0.5 mm 1 mps 759 mmHg 93%
    05:00 +12°C° 0.5 mm 1 mps 759 mmHg 94%
    06:00 +14°C° 0.1 mm 1 mps 759 mmHg 91%
    07:00 +15°C° 0.1 mm 1 mps 759 mmHg 87%
    08:00 +18°C° 0.1 mm 1 mps 758 mmHg 83%
    09:00 +19°C° 0.1 mm 1 mps 758 mmHg 77%
    10:00 +20°C° 0.1 mm 2 mps 758 mmHg 72%
    11:00 +23°C° 0.1 mm 2 mps 758 mmHg 66%
    12:00 +23°C° 0.1 mm 2 mps 758 mmHg 65%
    13:00 +21°C° 0.1 mm 3 mps 757 mmHg 64%
    14:00 +21°C° 0.1 mm 3 mps 757 mmHg 63%
    15:00 +21°C° 0 mm 3 mps 757 mmHg 65%
    16:00 +20°C° 0 mm 2 mps 756 mmHg 66%
    17:00 +20°C° 0 mm 2 mps 756 mmHg 68%
    18:00 +19°C° 0.1 mm 2 mps 756 mmHg 74%
    19:00 +17°C° 0.1 mm 2 mps 756 mmHg 80%
    20:00 +16°C° 0.1 mm 2 mps 756 mmHg 85%
    21:00 +15°C° 0.1 mm 1 mps 756 mmHg 87%
    22:00 +15°C° 0.1 mm 1 mps 756 mmHg 88%
    23:00 +14°C° 0.1 mm 1 mps 756 mmHg 90%

    Day after tomorrow, 22 May, Wednesday

    Time Temperature Precipitation Wind Pressure Humidity
    00:00 +14°C° 0 mm 1 mps 755 mmHg 90%
    01:00 +14°C° 0 mm 1 mps 755 mmHg 91%
    02:00 +14°C° 0 mm 1 mps 755 mmHg 91%
    03:00 +14°C° 0 mm 1 mps 755 mmHg 90%
    04:00 +14°C° 0 mm 1 mps 755 mmHg 90%
    05:00 +14°C° 0 mm 1 mps 755 mmHg 89%
    06:00 +15°C° 0 mm 2 mps 755 mmHg 84%
    07:00 +16°C° 0 mm 2 mps 755 mmHg 80%
    08:00 +18°C° 0 mm 2 mps 755 mmHg 75%
    09:00 +18°C° 0 mm 2 mps 755 mmHg 72%
    10:00 +19°C° 0 mm 3 mps 755 mmHg 69%
    11:00 +20°C° 0 mm 3 mps 755 mmHg 66%
    12:00 +20°C° 0 mm 3 mps 755 mmHg 67%
    13:00 +19°C° 0 mm 3 mps 754 mmHg 69%
    14:00 +19°C° 0 mm 3 mps 754 mmHg 70%
    15:00 +19°C° 0 mm 3 mps 754 mmHg 70%
    16:00 +18°C° 0 mm 3 mps 754 mmHg 71%
    17:00 +18°C° 0 mm 3 mps 754 mmHg 72%
    18:00 +17°C° 0 mm 3 mps 754 mmHg 75%
    19:00 +16°C° 0 mm 3 mps 754 mmHg 78%
    20:00 +14°C° 0 mm 3 mps 754 mmHg 81%
    21:00 +14°C° 0 mm 3 mps 755 mmHg 82%
    22:00 +13°C° 0 mm 3 mps 755 mmHg 83%
    23:00 +12°C° 0 mm 4 mps 755 mmHg 84%

    23 May, Thursday

    Time Temperature Precipitation Wind Pressure Humidity
    00:00 +11°C° 0 mm 4 mps 756 mmHg 78%
    01:00 +9°C° 0 mm 5 mps 756 mmHg 71%
    02:00 +8°C° 0 mm 5 mps 757 mmHg 64%
    03:00 +7°C° 0 mm 5 mps 757 mmHg 65%
    04:00 +6°C° 0 mm 5 mps 758 mmHg 67%
    05:00 +6°C° 0 mm 5 mps 758 mmHg 68%
    06:00 +6°C° 0 mm 5 mps 758 mmHg 62%
    07:00 +7°C° 0 mm 5 mps 758 mmHg 56%
    08:00 +7°C° 0 mm 5 mps 759 mmHg 50%
    09:00 +8°C° 0 mm 5 mps 759 mmHg 47%
    10:00 +10°C° 0 mm 4 mps 759 mmHg 44%
    11:00 +10°C° 0 mm 4 mps 759 mmHg 41%
    12:00 +11°C° 0 mm 4 mps 759 mmHg 40%
    13:00 +11°C° 0 mm 4 mps 759 mmHg 39%
    14:00 +12°C° 0 mm 4 mps 758 mmHg 37%
    15:00 +12°C° 0 mm 3 mps 758 mmHg 37%
    16:00 +12°C° 0 mm 3 mps 758 mmHg 37%
    17:00 +12°C° 0 mm 3 mps 758 mmHg 37%
    18:00 +11°C° 0 mm 3 mps 758 mmHg 39%
    19:00 +10°C° 0 mm 3 mps 758 mmHg 42%
    20:00 +9°C° 0 mm 3 mps 757 mmHg 44%
    21:00 +8°C° 0.1 mm 3 mps 758 mmHg 48%
    22:00 +7°C° 0.1 mm 4 mps 758 mmHg 52%
    23:00 +6°C° 0.1 mm 4 mps 758 mmHg 56%

    24 May, Friday

    Time Temperature Precipitation Wind Pressure Humidity
    00:00 +6°C° 0.5 mm 4 mps 758 mmHg 63%
    01:00 +5°C° 0.5 mm 4 mps 758 mmHg 70%
    02:00 +4°C° 0.5 mm 4 mps 758 mmHg 77%
    03:00 +4°C° 0.5 mm 4 mps 758 mmHg 79%
    04:00 +4°C° 0.5 mm 4 mps 757 mmHg 81%
    05:00 +2°C° 0.5 mm 5 mps 757 mmHg 83%
    06:00 +3°C° 0.2 mm 5 mps 757 mmHg 83%
    07:00 +3°C° 0.2 mm 5 mps 756 mmHg 82%
    08:00 +3°C° 0.2 mm 5 mps 756 mmHg 82%
    09:00 +5°C° 0.3 mm 5 mps 756 mmHg 82%
    10:00 +4°C° 0.3 mm 6 mps 756 mmHg 83%
    11:00 +4°C° 0.3 mm 6 mps 755 mmHg 83%
    12:00 +5°C° 1.8 mm 5 mps 755 mmHg 86%
    13:00 +5°C° 1.8 mm 4 mps 755 mmHg 89%
    14:00 +5°C° 1.8 mm 3 mps 755 mmHg 92%
    15:00 +5°C° 1.1 mm 3 mps 754 mmHg 93%
    16:00 +5°C° 1.1 mm 3 mps 754 mmHg 94%
    17:00 +5°C° 1.1 mm 3 mps 754 mmHg 94%
    18:00 +5°C° 0.1 mm 3 mps 754 mmHg 94%
    19:00 +7°C° 0.1 mm 2 mps 753 mmHg 95%
    20:00 +7°C° 0.1 mm 2 mps 753 mmHg 95%
    21:00 +6°C° 0 mm 2 mps 753 mmHg 96%
    22:00 +6°C° 0 mm 2 mps 753 mmHg 97%
    23:00 +5°C° 0 mm 2 mps 753 mmHg 98%

    25 May, Saturday

    Time Temperature Precipitation Wind Pressure Humidity
    00:00 +5°C° 0 mm 2 mps 753 mmHg 98%
    01:00 +6°C° 0 mm 2 mps 752 mmHg 98%
    02:00 +6°C° 0 mm 2 mps 752 mmHg 98%
    03:00 +6°C° 0 mm 2 mps 752 mmHg 98%
    04:00 +7°C° 0 mm 2 mps 752 mmHg 97%
    05:00 +7°C° 0 mm 2 mps 752 mmHg 97%
    06:00 +8°C° 0 mm 2 mps 752 mmHg 94%
    07:00 +9°C° 0 mm 2 mps 752 mmHg 92%
    08:00 +10°C° 0 mm 2 mps 752 mmHg 89%
    09:00 +11°C° 0 mm 1 mps 752 mmHg 85%
    10:00 +12°C° 0 mm 1 mps 752 mmHg 81%
    11:00 +13°C° 0 mm 1 mps 752 mmHg 78%
    12:00 +13°C° 0 mm 1 mps 752 mmHg 75%
    13:00 +14°C° 0 mm 1 mps 752 mmHg 71%
    14:00 +14°C° 0 mm 1 mps 751 mmHg 68%
    15:00 +15°C° 0 mm 1 mps 751 mmHg 67%
    16:00 +15°C° 0 mm 1 mps 751 mmHg 67%
    17:00 +15°C° 0 mm 1 mps 751 mmHg 66%
    18:00 +14°C° 0 mm 1 mps 751 mmHg 72%
    19:00 +12°C° 0 mm 1 mps 751 mmHg 78%
    20:00 +11°C° 0 mm 1 mps 750 mmHg 84%
    21:00 +10°C° 0 mm 1 mps 750 mmHg 88%
    22:00 +9°C° 0 mm 1 mps 750 mmHg 91%
    23:00 +8°C° 0 mm 1 mps 750 mmHg 95%
    Show more